User: anonymous   Login
Location: *
(2.5500°S, 65.9667°W)
Time: 19:14:17
(UTC+00:00)
Language:

NOSS 0 Rocket - Orbit

View from above orbital plane
View from above orbital plane
View from above satellite
View from above satellite

Ground track
Ground track

The orbit data is extracted from the following two-line orbital elements,

1 05679U 71110B   22022.54804350  .00000000  00000-0  45075-4 0  9999
2 05679  69.9974 134.6753 0012336 359.5874   0.5213 13.85368056146814
Epoch (UTC): 22 January 2022 13:09:10
Eccentricity: 0.0012336
inclination: 69.9974°
perigee height: 936 km
apogee height: 954 km
right ascension of ascending node: 134.6753°
argument of perigee: 359.5874°
revolutions per day: 13.85368056
mean anomaly at epoch: 0.5213°
orbit number at epoch: 14681

The dashed part of the orbit path shows where the satellite is in the earth's shadow,  

DLR